Location: Unspecified
(30.7478°N, 0.0000°E)
Time: 21:24:04
(UTC-05:00)

UNISAT 6 - Visible Passes

Search period start: 03 April 2026 00:00
Search period end: 13 April 2026 00:00
Orbit: 574 x 636 km, 97.8° (Epoch: 28 March)

Date Brightness Start Highest point End Pass type
(mag) Time Alt. Az. Time Alt. Az. Time Alt. Az.
4 Apr ? 21:44:18 12° NNE 21:44:18 12° NNE 21:44:39 10° NNE visible
5 Apr ? 21:56:45 14° NNE 21:56:45 14° NNE 21:57:32 10° N visible
6 Apr ? 22:09:12 17° N 22:09:12 17° N 22:10:16 10° N visible
7 Apr ? 22:21:38 19° N 22:21:38 19° N 22:22:53 10° N visible
8 Apr ? 22:34:04 20° NNW 22:34:04 20° NNW 22:35:24 10° NNW visible
9 Apr ? 22:46:30 19° NNW 22:46:30 19° NNW 22:47:49 10° NNW visible
10 Apr ? 21:22:06 13° NE 21:22:06 13° NE 21:23:09 10° NE visible
10 Apr ? 22:58:55 17° NW 22:58:55 17° NW 23:00:06 10° NNW visible
11 Apr ? 21:34:31 18° NE 21:34:31 18° NE 21:36:19 10° NNE visible
11 Apr ? 23:11:20 14° NW 23:11:20 14° NW 23:12:14 10° NW visible
12 Apr ? 21:46:56 24° NE 21:46:56 24° NE 21:49:14 10° NNE visible
12 Apr ? 23:23:46 11° WNW 23:23:46 11° WNW 23:24:08 10° NW visible
